Precipitable_Water
0.88 0.96 0.98 1.02 1.11 1.08 1.06 1.10 1.14 1.03 0.95 1.01 1.12 1.13 1.16 1.22 1.24 1.26 1.27 1.31 1.34 1.33 1.29 1.23 1.28 1.32 1.46 1.53 1.62 1.65 1.59 1.45 1.35
0.76 0.79 0.86 0.95 1.05 1.10 1.08 1.12 1.24 1.27 1.20 1.02 1.02 1.08 1.14 1.17 1.21 1.23 1.22 1.26 1.30 1.33 1.38 1.33 1.26 1.36 1.41 1.47 1.58 1.62 1.59 1.46 1.32
0.68 0.69 0.72 0.82 0.99 1.07 1.15 1.15 1.25 1.31 1.32 1.30 1.29 1.19 1.15 1.16 1.19 1.23 1.27 1.31 1.26 1.27 1.32 1.37 1.30 1.31 1.43 1.45 1.53 1.60 1.59 1.53 1.46
0.67 0.71 0.74 0.79 0.94 1.05 1.15 1.22 1.22 1.28 1.32 1.37 1.39 1.42 1.36 1.28 1.28 1.36 1.44 1.42 1.38 1.33 1.34 1.39 1.35 1.32 1.37 1.42 1.46 1.54 1.56 1.55 1.46
0.66 0.74 0.79 0.79 0.85 0.99 1.12 1.21 1.25 1.27 1.29 1.33 1.35 1.38 1.44 1.40 1.39 1.42 1.41 1.41 1.44 1.46 1.31 1.37 1.38 1.31 1.33 1.38 1.40 1.46 1.48 1.48 1.46
0.50 0.67 0.76 0.77 0.81 0.86 0.93 0.99 1.18 1.28 1.34 1.29 1.35 1.45 1.43 1.47 1.46 1.42 1.39 1.43 1.46 1.48 1.36 1.28 1.34 1.35 1.27 1.33 1.34 1.38 1.42 1.49 1.48
0.37 0.52 0.62 0.70 0.73 0.77 0.85 0.96 1.03 1.14 1.26 1.36 1.34 1.35 1.39 1.40 1.40 1.38 1.41 1.44 1.47 1.46 1.42 1.27 1.27 1.31 1.27 1.30 1.33 1.36 1.37 1.42 1.47
0.30 0.41 0.51 0.58 0.61 0.65 0.71 0.85 1.03 1.08 1.19 1.26 1.30 1.29 1.31 1.34 1.39 1.45 1.47 1.44 1.44 1.48 1.47 1.30 1.21 1.26 1.28 1.28 1.30 1.31 1.34 1.38 1.45
0.25 0.31 0.37 0.48 0.57 0.61 0.64 0.71 0.88 1.05 1.13 1.15 1.26 1.28 1.28 1.35 1.41 1.42 1.40 1.44 1.44 1.45 1.47 1.41 1.24 1.23 1.22 1.21 1.21 1.25 1.32 1.35 1.38
0.26 0.27 0.31 0.37 0.45 0.50 0.55 0.62 0.75 0.96 1.08 1.24 1.30 1.30 1.35 1.40 1.44 1.42 1.40 1.44 1.49 1.46 1.42 1.46 1.25 1.17 1.20 1.17 1.25 1.22 1.26 1.31 1.34
0.30 0.31 0.30 0.33 0.36 0.42 0.50 0.56 0.72 0.95 1.18 1.20 1.28 1.31 1.32 1.41 1.45 1.46 1.49 1.51 1.47 1.49 1.51 1.41 1.34 1.20 1.19 1.15 1.19 1.24 1.24 1.28 1.35
0.33 0.36 0.36 0.37 0.38 0.41 0.48 0.55 0.68 0.93 1.10 1.20 1.26 1.23 1.28 1.33 1.39 1.39 1.45 1.48 1.51 1.57 1.57 1.55 1.41 1.34 1.25 1.17 1.14 1.22 1.28 1.30 1.31
0.36 0.39 0.40 0.40 0.40 0.42 0.48 0.56 0.70 0.82 0.93 1.03 1.07 1.11 1.13 1.25 1.36 1.40 1.41 1.45 1.53 1.65 1.62 1.56 1.58 1.43 1.33 1.26 1.21 1.26 1.27 1.33 1.31
0.43 0.46 0.46 0.45 0.44 0.38 0.44 0.54 0.61 0.69 0.84 0.95 1.03 1.22 1.33 1.41 1.44 1.44 1.51 1.60 1.72 1.77 1.78 1.80 1.63 1.60 1.46 1.35 1.32 1.34 1.31 1.37 1.41
0.60 0.66 0.64 0.51 0.47 0.47 0.57 0.63 0.63 0.64 0.76 0.98 1.09 1.16 1.20 1.26 1.32 1.38 1.42 1.46 1.58 1.48 1.72 1.85 1.83 1.78 1.70 1.68 1.53 1.49 1.35 1.34 1.43
0.75 0.83 0.79 0.76 0.65 0.61 0.64 0.68 0.73 0.74 0.83 0.99 1.10 1.16 1.21 1.25 1.33 1.40 1.45 1.45 1.52 1.60 1.81 1.74 1.78 1.83 1.78 1.74 1.83 1.76 1.61 1.56 1.57
0.83 0.89 0.90 0.91 0.85 0.80 0.81 0.85 0.80 0.78 0.83 0.89 0.91 0.95 1.02 1.16 1.25 1.34 1.43 1.52 1.56 1.55 1.57 1.43 1.27 1.59 1.71 1.68 1.64 1.87 1.75 1.76 1.70
0.85 0.85 0.90 0.93 0.87 0.85 0.84 0.88 0.85 0.86 0.86 0.98 0.97 0.95 0.98 1.06 1.18 1.21 1.29 1.37 1.43 1.48 1.46 1.46 1.25 1.56 1.63 1.49 1.42 1.69 1.91 1.82 1.78
0.97 0.94 0.96 0.93 0.91 0.86 0.85 0.86 0.86 0.88 0.90 0.88 0.86 0.85 0.88 0.90 0.97 1.07 1.17 1.24 1.24 1.40 1.45 1.56 1.62 1.73 1.73 1.56 1.46 1.57 1.60 1.75 1.84
1.10 1.03 0.97 0.92 0.91 0.94 0.94 0.94 0.94 1.00 1.02 1.00 0.96 0.93 0.97 1.02 1.02 1.08 1.18 1.14 1.15 1.12 1.32 1.52 1.65 1.60 1.61 1.58 1.71 1.73 1.80 1.82 1.77
Wind_Speed
24 25 24 26 27 26 26 26 26 26 27 27 27 27 27 26 26 24 23 22 20 19 18 16 16 17 16 14 13 11 9 7 5
25 25 24 26 26 27 28 28 27 27 26 27 28 28 28 28 27 27 25 24 23 21 20 19 19 19 18 17 15 13 12 9 8
26 24 24 25 25 26 28 29 29 29 29 28 26 26 27 28 28 28 28 26 25 24 22 22 21 21 21 20 18 16 15 12 10
27 25 24 23 24 25 27 28 29 29 29 29 28 27 25 25 25 26 27 27 27 26 25 24 24 24 24 23 21 19 17 15 13
28 27 26 24 23 24 26 28 29 29 29 29 29 28 27 26 25 24 25 26 27 27 27 26 26 26 26 26 25 23 21 19 16
23 26 26 26 24 23 23 25 28 30 30 31 30 29 29 28 27 26 26 26 26 26 27 28 28 27 28 28 27 26 24 21 20
22 24 25 25 25 24 24 25 27 29 31 30 31 30 30 29 29 29 28 27 27 26 26 28 29 29 30 30 30 29 26 24 22
19 24 25 27 27 25 23 24 25 29 29 30 31 31 30 31 30 30 29 28 28 27 26 27 29 30 31 31 32 31 29 27 25
24 23 25 27 27 27 25 24 23 28 30 30 30 30 29 29 30 30 30 30 29 28 27 26 28 30 31 33 33 33 32 30 27
26 26 26 27 28 28 27 26 26 27 30 31 31 31 30 29 30 30 31 30 30 30 29 29 28 30 31 33 35 34 34 33 30
28 27 27 26 27 28 29 28 27 27 30 32 31 32 31 30 29 31 30 31 32 31 31 32 31 31 32 34 36 36 36 36 34
29 29 28 27 27 26 28 28 27 28 28 31 32 32 32 32 32 32 31 32 33 33 33 33 34 33 33 34 35 36 37 37 36
28 27 28 27 26 25 24 25 26 28 30 30 30 30 31 32 32 34 36 35 35 35 35 35 35 36 36 36 37 36 38 38 37
26 26 27 27 25 26 26 26 27 28 29 30 31 30 31 32 34 34 34 36 37 38 36 37 36 37 38 39 39 39 40 40 40
25 24 22 26 24 23 24 24 26 27 28 29 30 30 31 33 34 34 34 34 36 38 37 38 39 37 38 38 40 41 41 43 44
25 23 20 23 24 22 22 22 25 25 25 27 28 30 31 33 34 34 35 34 36 36 38 37 36 35 38 39 38 39 43 43 44
25 23 21 19 20 20 20 20 20 22 25 25 26 27 29 30 32 35 36 37 36 37 38 39 44 46 41 38 38 40 39 40 40
25 24 23 21 19 18 18 19 19 19 21 23 25 27 29 30 32 34 36 38 39 40 43 44 40 43 43 41 38 41 40 38 37
25 24 23 23 21 19 19 20 20 20 22 24 25 27 28 31 34 37 40 41 41 42 44 44 44 43 44 46 43 40 41 40 36
23 22 22 21 20 20 20 20 21 23 25 26 28 30 32 35 37 38 40 41 43 44 45 45 48 48 47 44 41 41 40 39 38
Wind_Direction
212 211 212 213 212 212 213 213 212 212 215 218 220 222 225 227 228 229 231 233 234 235 235 234 229 224 224 224 223 223 225 231 234
212 214 215 216 216 216 217 216 217 218 219 221 224 226 228 229 230 231 232 233 234 236 237 235 231 227 224 224 223 225 226 231 236
217 218 219 220 220 220 220 221 222 222 223 223 224 226 229 231 231 233 233 233 234 235 236 235 233 229 227 226 226 227 227 232 237
220 220 220 220 222 224 223 223 223 224 222 224 225 226 225 228 229 230 232 233 234 236 237 236 235 231 229 228 227 227 228 233 239
224 224 223 225 228 227 228 227 226 224 225 225 225 225 226 228 229 229 231 233 235 237 238 237 236 233 231 229 227 228 231 235 241
223 224 227 228 226 228 229 229 229 227 227 227 227 228 228 230 231 231 233 234 236 237 238 237 235 234 232 229 228 229 232 236 241
228 226 225 223 228 232 235 235 233 228 227 228 228 229 229 231 232 233 234 235 237 238 239 237 235 234 232 230 229 231 233 237 241
237 232 228 227 231 234 236 238 237 230 229 230 228 228 231 233 234 235 236 236 237 238 239 239 236 235 233 231 230 232 233 237 241
244 237 230 233 233 233 237 238 238 230 228 227 225 226 230 232 233 235 235 235 236 237 238 239 237 235 234 233 232 232 234 238 242
237 236 240 237 236 238 241 241 239 233 227 225 227 229 233 235 235 235 235 235 235 236 237 237 238 236 235 234 234 234 235 238 244
241 241 240 240 242 243 240 240 237 235 227 226 230 233 234 236 236 236 235 236 237 239 240 240 239 240 239 237 236 236 237 240 244
242 243 243 243 244 244 240 236 235 230 228 229 232 234 236 238 237 236 238 240 241 242 242 243 241 241 240 240 240 238 238 240 245
241 245 245 240 240 237 234 234 234 231 231 233 231 234 237 238 235 241 242 245 245 244 244 244 243 243 242 242 242 241 240 241 246
242 247 244 239 238 235 237 236 234 234 234 234 235 239 240 239 242 244 246 249 247 242 245 246 245 245 244 244 245 244 242 243 246
238 241 242 233 234 235 236 235 235 236 238 237 239 242 242 244 244 245 248 249 246 248 248 246 245 251 248 248 247 246 247 246 247
231 233 235 231 230 231 234 237 237 236 240 240 240 243 244 247 245 247 248 251 249 250 246 246 245 250 249 248 251 249 247 249 248
226 228 227 225 225 228 235 238 240 241 242 243 245 247 248 249 248 249 251 251 252 250 250 245 255 255 248 250 254 252 248 250 253
225 224 224 225 227 230 234 238 243 247 248 250 251 253 255 254 255 254 254 254 253 253 253 254 256 250 248 245 259 252 245 252 253
221 221 224 226 229 234 240 245 248 252 254 256 259 261 262 262 263 261 259 259 258 258 259 256 254 251 248 253 256 243 247 249 243
217 220 224 227 233 240 244 249 253 257 260 262 264 267 269 268 268 267 264 261 259 259 260 258 253 250 249 249 245 243 245 246 248